WS6A-13 Weather Reports


time (UTC)temp
F
wind
direction
speed
knots
gust
knots
rain 1hr
in
rain 24hr
in
rain mn
in
humidity
%
barometer
mb
20260509190004 71 242 0.0 2.6 0.00 0.34 0.33 66 1006.6
20260509184504 71 242 0.0 2.6 0.00 0.34 0.33 68 1006.8
20260509183005 70 253 0.9 5.2 0.00 0.34 0.33 66 1006.9
20260509181504 70 242 0.9 4.3 0.00 0.34 0.33 65 1006.9
20260509180004 70 240 0.0 4.3 0.00 0.34 0.33 67 1006.8
20260509174504 69 245 0.9 2.6 0.00 0.34 0.33 67 1006.8
20260509173004 69 233 0.9 2.6 0.00 0.34 0.33 74 1007.0
20260509164504 66 267 0.0 2.6 0.00 0.34 0.33 76 1007.3
20260509161504 65 250 0.0 4.3 0.00 0.34 0.33 74 1007.2
20260509160003 65 201 0.0 2.6 0.00 0.34 0.33 78 1007.1
20260509154504 63 247 0.0 2.6 0.00 0.34 0.33 78 1007.1
20260509153004 63 69 0.0 2.6 0.00 0.34 0.33 82 1007.1
20260509151503 62 252 0.0 0.9 0.00 0.34 0.33 85 1007.1
20260509150004 61 248 0.0 1.7 0.00 0.34 0.33 85 1006.7
20260509144504 61 48 0.9 4.3 0.00 0.34 0.33 88 1006.7
20260509143004 60 252 0.0 0.9 0.00 0.34 0.33 93 1006.6
20260509141504 59 235 0.0 2.6 0.00 0.34 0.33 92 1006.7
20260509140005 58 216 0.9 2.6 0.00 0.34 0.33 94 1006.8
20260509133004 57 202 0.0 2.6 0.00 0.34 0.33 95 1006.8
20260509131504 56 200 0.0 0.0 0.00 0.34 0.33 96 1006.9
20260509130004 56 200 0.0 0.0 0.00 0.34 0.33 95 1006.8
20260509124504 55 200 0.0 0.0 0.00 0.34 0.33 95 1006.6
20260509123004 55 200 0.0 0.0 0.00 0.34 0.33 95 1006.4
20260509120004 55 248 0.0 0.0 0.01 0.34 0.33 95 1006.6
20260509114504 54 248 0.0 0.0 0.02 0.34 0.33 95 1006.1
20260509113003 54 248 0.0 0.0 0.04 0.34 0.33 95 1006.3
20260509111503 55 248 0.0 0.0 0.07 0.34 0.33 95 1006.5
20260509110004 54 248 0.0 0.0 0.07 0.33 0.32 95 1006.8
20260509103004 54 248 0.0 0.0 0.07 0.30 0.29 95 1006.7
20260509101503 55 248 0.0 0.0 0.06 0.27 0.26 95 1006.8
20260509100005 55 129 0.0 0.0 0.07 0.26 0.25 94 1006.8
20260509094504 55 129 0.0 0.0 0.07 0.24 0.23 94 1007.0
20260509093004 55 129 0.0 0.0 0.07 0.23 0.22 94 1007.1
20260509091505 55 129 0.0 0.0 0.06 0.21 0.20 94 1007.5
20260509090004 55 129 0.0 0.0 0.06 0.19 0.18 94 1007.7
20260509084503 55 129 0.0 0.0 0.04 0.17 0.16 94 1007.7
20260509083004 55 129 0.0 0.0 0.03 0.16 0.15 94 1007.8
20260509081504 55 129 0.0 0.0 0.03 0.15 0.14 94 1007.7
20260509080004 55 129 0.0 0.0 0.02 0.13 0.12 93 1007.5
20260509071504 55 129 0.0 0.0 0.05 0.12 0.11 93 1008.0
20260509070004 55 126 0.0 0.9 0.04 0.11 0.10 92 1008.1
20260509064504 55 193 0.0 0.0 0.04 0.10 0.09 92 1008.4
20260509063004 55 201 0.0 0.0 0.05 0.09 0.08 92 1008.4
20260509061504 55 201 0.0 0.0 0.04 0.07 0.06 92 1008.2
20260509060004 55 201 0.0 0.0 0.05 0.07 0.06 91 1008.4
20260509054504 55 201 0.0 0.0 0.04 0.06 0.05 91 1008.5
20260509051504 55 201 0.0 0.0 0.01 0.03 0.02 90 1008.7
20260509050004 55 201 0.0 0.0 0.01 0.02 0.01 90 1008.9
20260509044503 55 201 0.0 0.0 0.00 0.02 0.01 90 1008.9
20260509043004 55 201 0.0 0.0 0.00 0.02 0.01 90 1009.0
20260509041521 55 201 0.0 0.0 0.00 0.02 0.01 89 1009.1
20260509040004 55 201 0.0 0.0 0.00 0.01 0.00 89 1009.2
20260509034503 55 201 0.0 0.0 0.00 0.01 0.01 88 1009.0
20260509033004 55 201 0.0 0.0 0.00 0.01 0.01 88 1009.2
20260509031504 56 201 0.0 0.0 0.00 0.01 0.01 87 1009.2
20260509030004 56 201 0.0 0.0 0.00 0.01 0.01 87 1009.2
20260509023004 56 201 0.0 0.0 0.00 0.01 0.01 87 1009.2
20260509021503 56 201 0.0 0.0 0.01 0.01 0.01 86 1009.4
20260509013004 57 201 0.0 0.0 0.01 0.01 0.01 85 1008.9
20260509011504 57 201 0.0 0.0 0.00 0.00 0.00 86 1009.0
20260509004504 57 202 0.0 0.0 0.00 0.00 0.00 83 1008.4
20260509003004 57 202 0.0 0.0 0.00 0.00 0.00 85 1008.3
20260509001504 58 201 0.0 0.0 0.00 0.00 0.00 84 1008.3
20260508234503 59 201 0.0 0.0 0.00 0.00 0.00 81 1008.6
20260508233004 60 202 0.0 0.0 0.00 0.00 0.00 78 1008.5
20260508231503 61 202 0.0 0.0 0.00 0.00 0.00 75 1008.4
20260508230004 62 202 0.0 0.0 0.00 0.00 0.00 69 1008.2
20260508223004 63 202 0.0 0.0 0.00 0.00 0.00 68 1008.2
20260508220004 64 202 0.0 0.0 0.00 0.00 0.00 64 1008.2
20260508213004 65 202 0.0 0.0 0.00 0.00 0.00 61 1008.3
20260508210003 66 202 0.0 0.0 0.00 0.00 0.00 61 1008.7
20260508204504 66 157 0.0 4.3 0.00 0.00 0.00 56 1008.8
20260508201504 66 255 0.0 2.6 0.00 0.00 0.00 51 1009.1
20260508200004 67 261 0.0 2.6 0.00 0.00 0.00 52 1009.2
20260508194503 68 253 0.9 2.6 0.00 0.00 0.00 48 1009.2
20260508193004 68 277 0.0 4.3 0.00 0.00 0.00 49 1009.4
20260508191504 70 234 1.7 5.2 0.00 0.00 0.00 46 1009.6